Flag for Tunisia Weather past 2 weeks in Tunis, Tunisia

Now
86 °F

Passing clouds.


Feels Like: 89 °F
Forecast: 76 / 94 °F
Wind: 3 mph from East

Location: Tunis-Carthage

Current Time: Aug 2, 2014 at 9:52:58 AM

Latest Report: Aug 2, 2014 at 9:00 AM


Visibility: N/A

Pressure: 29.86 "Hg

Humidity: 55%

Dew point: 68 °F

Location of TunisLocation

Historic Weather in Tunis — Graph

°F

Tunis temperature yesterday

Maximum temperature yesterday: 90 °F (at 12:30 PM)
Minimum temperature yesterday: 72 °F (at 11:00 PM)
Average temperature yesterday: 81 °F

Past Weeks' High & Low Weather Summary

 TemperatureHumidityPressure
High106 °F (Jul 29, 12:00 PM)94% (Jul 25, 6:00 AM)30.07 "Hg (Jul 25, 6:00 AM)
Low68 °F (Jul 19, 1:00 AM)18% (Jul 19, 1:30 PM)29.71 "Hg (Jul 29, 12:30 PM)
Average84 °F52%29.91 "Hg
* Reported Jul 18 8:00 AM — Aug 2 8:30 AM, Tunis, Weather by CustomWeather, © 2014

Note: Actual official high and low records may vary slightly from our data, if they occured in-between our weather recording intervals... More about our weather records

Advertising

Tunis weather history for previous 24 hours

 ConditionsComfort  
Time TempWeatherWind HumidityBarometerVisibility
8:30 AM
Aug 2
84 °FPassing clouds.No wind55%29.86 "HgN/A
8:00 AM82 °FPassing clouds.2 mph62%29.86 "HgN/A
7:30 AM81 °FPassing clouds.3 mph66%29.86 "HgN/A
7:00 AM79 °FPassing clouds.No wind74%29.86 "HgN/A
6:30 AM73 °FPassing clouds.No wind78%29.83 "HgN/A
6:00 AM72 °FPassing clouds.No wind83%29.83 "HgN/A
5:30 AM70 °FPassing clouds.No wind83%29.83 "Hg5 mi
5:00 AM72 °FPassing clouds.No wind83%29.83 "Hg5 mi
4:30 AM70 °FPassing clouds.No wind83%29.83 "Hg5 mi
4:00 AM72 °FPassing clouds.No wind83%29.83 "Hg5 mi
3:30 AM72 °FPassing clouds.No wind78%29.83 "Hg5 mi
3:00 AM72 °FPassing clouds.No wind78%29.83 "Hg5 mi
2:30 AM72 °FPassing clouds.No wind73%29.86 "Hg5 mi
2:00 AM72 °FPassing clouds.No wind65%29.86 "Hg5 mi
1:30 AM73 °FClear.No wind69%29.86 "Hg10 mi
1:00 AM72 °FClear.No wind65%29.86 "Hg10 mi
12:30 AM75 °FClear.No wind61%29.86 "Hg10 mi
12:00 AM75 °FClear.No wind57%29.89 "Hg10 mi
11:30 PM
Aug 1
73 °FClear.3 mph69%29.89 "Hg10 mi
11:00 PM72 °FClear.No wind69%29.89 "Hg10 mi
10:30 PM73 °FClear.No wind69%29.89 "Hg10 mi
10:00 PM75 °FClear.No wind65%29.89 "Hg10 mi
9:30 PM77 °FClear.2 mph65%29.89 "Hg10 mi
8:30 PM77 °FClear.6 mph57%29.86 "Hg10 mi
8:00 PM77 °FPassing clouds.6 mph57%29.86 "HgN/A
7:30 PM79 °FPassing clouds.6 mph54%29.86 "HgN/A
7:00 PM81 °FPassing clouds.6 mph51%29.86 "HgN/A
6:30 PM82 °FPassing clouds.9 mph51%29.86 "HgN/A
6:00 PM84 °FPassing clouds.9 mph48%29.86 "HgN/A
5:30 PM86 °FSunny.12 mph46%29.86 "Hg10 mi
5:00 PM86 °FSunny.12 mph46%29.86 "Hg10 mi
4:30 PM86 °FSunny.13 mph43%29.86 "Hg10 mi
4:00 PM88 °FSunny.12 mph40%29.86 "Hg10 mi
3:00 PM88 °FSunny.12 mph40%29.86 "Hg10 mi
2:30 PM90 °FPassing clouds.14 mph41%29.86 "HgN/A
2:00 PM90 °FPassing clouds.12 mph38%29.86 "HgN/A
1:30 PM90 °FPassing clouds.10 mph41%29.89 "HgN/A
1:00 PM90 °FPassing clouds.8 mph43%29.89 "HgN/A
12:30 PM90 °FPassing clouds.9 mph43%29.89 "HgN/A
12:00 PM88 °FPassing clouds.6 mph43%29.89 "HgN/A
11:30 AM88 °FPassing clouds.7 mph40%29.89 "HgN/A
11:00 AM88 °FPassing clouds.3 mph38%29.89 "HgN/A
10:30 AM88 °FPassing clouds.5 mph35%29.89 "HgN/A
10:00 AM88 °FPassing clouds.9 mph35%29.92 "HgN/A
9:30 AM86 °FPassing clouds.6 mph38%29.92 "HgN/A
9:00 AM84 °FPassing clouds.No wind40%29.92 "HgN/A
Weather by CustomWeather, © 2014

See weather overviewHow to use our weather pages